Terminal Aerodrome Forecast
Issued by NWS Dodge City, KS

Home | Current Version | Previous Version | Text Only | Print | Product List | Glossary On
Versions: 1 2 3 4 5 6 7 8 9 10 11 12 13 14 15 16 17 18 19 20 21 22 23 24 25 26 27 28 29 30 31 32
000
FTUS43 KDDC 291720
TAFDDC
TAF
KDDC 291720Z 2918/3018 35025G37KT P6SM SCT120
     FM292100 36017G26KT P6SM SKC
     FM300100 04010KT P6SM SKC
     FM301500 19015G23KT P6SM SKC=

USA.gov is the U.S. government's official web portal to all federal, state and local government web resources and services.